| time (UTC) | temp F | wind direction | speed knots | gust knots | rain 1hr in | rain 24hr in | rain mn in | humidity % | barometer mb |
| 20260903070011 | 55 | 94 | 0.0 | 2.6 | 0.00 | 0.00 | 0.00 | 48 | 1011.0 |
| 20260903064526 | 53 | 107 | 1.7 | 5.2 | 0.00 | 0.00 | 0.00 | 55 | 1011.0 |
| 20260903063005 | 53 | 123 | 0.0 | 1.7 | 0.00 | 0.00 | 0.00 | 52 | 1011.1 |
| 20260903061506 | 53 | 140 | 1.7 | 4.3 | 0.00 | 0.00 | 0.00 | 55 | 1011.0 |
| 20260903060015 | 57 | 190 | 1.7 | 2.6 | 0.00 | 0.00 | 0.00 | 47 | 1010.8 |
| 20260903054514 | 55 | 84 | 1.7 | 3.5 | 0.00 | 0.00 | 0.00 | 47 | 1011.0 |
| 20260903053018 | 56 | 69 | 0.9 | 3.5 | 0.00 | 0.00 | 0.00 | 47 | 1011.3 |
| 20260903051503 | 56 | 155 | 1.7 | 3.5 | 0.00 | 0.00 | 0.00 | 49 | 1011.5 |
| 20260903050009 | 57 | 271 | 0.0 | 1.7 | 0.00 | 0.00 | 0.00 | 45 | 1011.4 |
| 20260903044512 | 57 | 140 | 0.0 | 3.5 | 0.00 | 0.00 | 0.00 | 43 | 1011.2 |
| 20260903043018 | 57 | 88 | 1.7 | 3.5 | 0.00 | 0.00 | 0.00 | 42 | 1011.2 |
| 20260903041529 | 59 | 321 | 0.0 | 1.7 | 0.00 | 0.00 | 0.00 | 41 | 1011.5 |
| 20260903040008 | 59 | 338 | 1.7 | 2.6 | 0.00 | 0.00 | 0.00 | 41 | 1011.7 |
| 20260903034508 | 59 | 133 | 1.7 | 3.5 | 0.00 | 0.00 | 0.00 | 42 | 1011.5 |
| 20260903033016 | 60 | 109 | 1.7 | 2.6 | 0.00 | 0.00 | 0.00 | 38 | 1011.5 |
| 20260903031518 | 60 | 109 | 2.6 | 5.2 | 0.00 | 0.00 | 0.00 | 40 | 1011.4 |
| 20260903030030 | 60 | 94 | 0.0 | 1.7 | 0.00 | 0.00 | 0.00 | 40 | 1011.3 |
| 20260903024506 | 60 | 80 | 1.7 | 2.6 | 0.00 | 0.00 | 0.00 | 43 | 1011.1 |
| 20260903023012 | 62 | 71 | 1.7 | 3.5 | 0.00 | 0.00 | 0.00 | 40 | 1011.1 |
| 20260903021522 | 62 | 88 | 1.7 | 2.6 | 0.00 | 0.00 | 0.00 | 40 | 1011.1 |
| 20260903020044 | 61 | 80 | 0.0 | 1.7 | 0.00 | 0.00 | 0.00 | 44 | 1011.2 |
| 20260903014528 | 63 | 53 | 0.0 | 0.0 | 0.00 | 0.00 | 0.00 | 43 | 1011.2 |
| 20260903013008 | 63 | 33 | 0.0 | 0.0 | 0.00 | 0.00 | 0.00 | 42 | 1010.9 |
| 20260903011516 | 65 | 60 | 0.0 | 2.6 | 0.00 | 0.00 | 0.00 | 39 | 1010.9 |
| 20260903010024 | 66 | 76 | 0.0 | 7.0 | 0.00 | 0.00 | 0.00 | 37 | 1010.9 |
| 20260903004529 | 67 | 360 | 3.5 | 7.8 | 0.00 | 0.00 | 0.00 | 35 | 1011.0 |
| 20260903003028 | 67 | 352 | 0.9 | 6.1 | 0.00 | 0.00 | 0.00 | 36 | 1010.9 |
| 20260903001514 | 69 | 327 | 3.5 | 8.7 | 0.00 | 0.00 | 0.00 | 36 | 1010.9 |
| 20260903000016 | 70 | 287 | 1.7 | 9.6 | 0.00 | 0.00 | 0.00 | 34 | 1010.8 |
| 20260902234526 | 72 | 340 | 4.3 | 8.7 | 0.00 | 0.00 | 0.00 | 34 | 1010.7 |
| 20260902233029 | 73 | 341 | 1.7 | 11.3 | 0.00 | 0.00 | 0.00 | 31 | 1010.6 |
| 20260902231532 | 77 | 282 | 10.4 | 18.2 | 0.00 | 0.00 | 0.00 | 15 | 1010.6 |
| 20260902230018 | 75 | 330 | 2.6 | 4.3 | 0.00 | 0.00 | 0.00 | 29 | 1010.5 |
| 20260902224524 | 78 | 26 | 2.6 | 16.5 | 0.00 | 0.00 | 0.00 | 27 | 1010.5 |
| 20260902223004 | 79 | 233 | 10.4 | 20.0 | 0.00 | 0.00 | 0.00 | 16 | 1010.0 |
| 20260902221509 | 79 | 221 | 10.4 | 22.6 | 0.00 | 0.00 | 0.00 | 18 | 1009.7 |
| 20260902220021 | 78 | 198 | 20.0 | 31.3 | 0.00 | 0.00 | 0.00 | 16 | 1009.4 |
| 20260902214523 | 78 | 224 | 14.8 | 26.9 | 0.00 | 0.00 | 0.00 | 16 | 1009.6 |
| 20260902213004 | 80 | 201 | 11.3 | 25.2 | 0.00 | 0.00 | 0.00 | 17 | 1009.4 |
| 20260902211505 | 79 | 189 | 14.8 | 25.2 | 0.00 | 0.00 | 0.00 | 16 | 1009.1 |
| 20260902210018 | 79 | 192 | 17.4 | 30.4 | 0.00 | 0.00 | 0.00 | 16 | 1009.1 |
| 20260902204535 | 79 | 194 | 14.8 | 21.7 | 0.00 | 0.00 | 0.00 | 18 | 1009.2 |
| 20260902203026 | 80 | 190 | 15.6 | 28.7 | 0.00 | 0.00 | 0.00 | 19 | 1009.1 |
| 20260902201517 | 78 | 160 | 19.1 | 28.7 | 0.00 | 0.00 | 0.00 | 20 | 1009.2 |
| 20260902200009 | 79 | 157 | 10.4 | 22.6 | 0.00 | 0.00 | 0.00 | 25 | 1009.2 |
| 20260902194521 | 79 | 177 | 9.6 | 26.1 | 0.00 | 0.00 | 0.00 | 25 | 1009.6 |
| 20260902193024 | 78 | 329 | 4.3 | 11.3 | 0.00 | 0.00 | 0.00 | 29 | 1009.9 |
| 20260902191527 | 75 | 219 | 11.3 | 21.7 | 0.00 | 0.00 | 0.00 | 28 | 1010.0 |
| 20260902190008 | 76 | 169 | 11.3 | 20.9 | 0.00 | 0.00 | 0.00 | 27 | 1010.1 |
| 20260902184516 | 74 | 189 | 11.3 | 20.9 | 0.00 | 0.00 | 0.00 | 27 | 1010.4 |
| 20260902183022 | 75 | 214 | 12.2 | 20.0 | 0.00 | 0.00 | 0.00 | 30 | 1010.7 |
| 20260902181527 | 76 | 186 | 9.6 | 21.7 | 0.00 | 0.00 | 0.00 | 32 | 1010.7 |
| 20260902180008 | 72 | 166 | 10.4 | 13.9 | 0.00 | 0.00 | 0.00 | 35 | 1011.0 |
| 20260902174511 | 72 | 196 | 7.8 | 15.6 | 0.00 | 0.00 | 0.00 | 41 | 1011.2 |
| 20260902173035 | 67 | 183 | 1.7 | 7.0 | 0.00 | 0.00 | 0.00 | 61 | 1011.4 |
| 20260902171520 | 67 | 326 | 1.7 | 2.6 | 0.00 | 0.00 | 0.00 | 59 | 1011.3 |
| 20260902170027 | 66 | 345 | 0.0 | 1.7 | 0.00 | 0.00 | 0.00 | 61 | 1011.3 |
| 20260902164510 | 65 | 298 | 0.9 | 3.5 | 0.00 | 0.00 | 0.00 | 63 | 1011.4 |
| 20260902163014 | 65 | 352 | 0.0 | 2.6 | 0.00 | 0.00 | 0.00 | 60 | 1011.3 |
| 20260902161526 | 64 | 325 | 0.9 | 2.6 | 0.00 | 0.00 | 0.00 | 66 | 1011.2 |
| 20260902160024 | 61 | 65 | 1.7 | 3.5 | 0.00 | 0.00 | 0.00 | 67 | 1011.5 |
| 20260902154531 | 60 | 342 | 0.0 | 2.6 | 0.00 | 0.00 | 0.00 | 68 | 1011.6 |
| 20260902153014 | 60 | 342 | 0.0 | 1.7 | 0.00 | 0.00 | 0.00 | 69 | 1011.7 |
| 20260902151516 | 60 | 16 | 1.7 | 2.6 | 0.00 | 0.00 | 0.00 | 68 | 1012.0 |
| 20260902150024 | 59 | 13 | 0.0 | 0.0 | 0.00 | 0.00 | 0.00 | 71 | 1012.0 |
| 20260902144529 | 58 | 178 | 0.9 | 1.7 | 0.00 | 0.00 | 0.00 | 73 | 1012.2 |
| 20260902143030 | 57 | 208 | 0.9 | 2.6 | 0.00 | 0.00 | 0.00 | 74 | 1012.4 |
| 20260902141515 | 56 | 120 | 0.0 | 0.0 | 0.00 | 0.00 | 0.00 | 80 | 1012.5 |
| 20260902140033 | 54 | 124 | 0.0 | 1.7 | 0.00 | 0.00 | 0.00 | 84 | 1012.8 |
| 20260902134526 | 52 | 122 | 1.7 | 2.6 | 0.00 | 0.00 | 0.00 | 84 | 1013.0 |
| 20260902133006 | 52 | 360 | 0.0 | 1.7 | 0.00 | 0.00 | 0.00 | 84 | 1012.9 |
| 20260902131513 | 51 | 326 | 0.0 | 1.7 | 0.00 | 0.00 | 0.00 | 84 | 1012.7 |
| 20260902130021 | 51 | 24 | 0.9 | 2.6 | 0.00 | 0.00 | 0.00 | 84 | 1012.6 |
| 20260902124507 | 52 | 62 | 0.0 | 0.0 | 0.00 | 0.00 | 0.00 | 80 | 1012.6 |
| 20260902123017 | 53 | 18 | 0.0 | 0.0 | 0.00 | 0.00 | 0.00 | 78 | 1012.7 |
| 20260902121509 | 55 | 108 | 1.7 | 2.6 | 0.00 | 0.00 | 0.00 | 72 | 1012.8 |
| 20260902120017 | 58 | 17 | 0.0 | 2.6 | 0.00 | 0.00 | 0.00 | 61 | 1012.8 |
| 20260902114526 | 60 | 75 | 0.9 | 1.7 | 0.00 | 0.00 | 0.00 | 57 | 1012.8 |
| 20260902113004 | 59 | 136 | 0.9 | 3.5 | 0.00 | 0.00 | 0.00 | 60 | 1013.0 |
| 20260902111528 | 58 | 148 | 6.1 | 7.8 | 0.00 | 0.00 | 0.00 | 64 | 1013.1 |
| 20260902110039 | 56 | 157 | 5.2 | 10.4 | 0.00 | 0.00 | 0.00 | 73 | 1013.3 |
| 20260902104527 | 56 | 137 | 1.7 | 2.6 | 0.00 | 0.00 | 0.00 | 74 | 1013.7 |
| 20260902103024 | 56 | 36 | 0.9 | 3.5 | 0.00 | 0.00 | 0.00 | 76 | 1014.2 |
| 20260902101504 | 55 | 95 | 1.7 | 1.7 | 0.00 | 0.00 | 0.00 | 79 | 1015.0 |
| 20260902100010 | 56 | 200 | 2.6 | 10.4 | 0.00 | 0.00 | 0.00 | 76 | 1015.2 |
| 20260902094515 | 57 | 234 | 0.9 | 7.8 | 0.00 | 0.00 | 0.00 | 72 | 1014.4 |
| 20260902093023 | 57 | 139 | 5.2 | 7.8 | 0.00 | 0.00 | 0.00 | 74 | 1015.1 |
| 20260902091527 | 57 | 168 | 3.5 | 6.1 | 0.00 | 0.00 | 0.00 | 76 | 1015.7 |
| 20260902090008 | 58 | 207 | 2.6 | 4.3 | 0.00 | 0.00 | 0.00 | 74 | 1015.9 |
| 20260902084515 | 58 | 63 | 1.7 | 2.6 | 0.00 | 0.00 | 0.00 | 70 | 1015.6 |
| 20260902083019 | 60 | 57 | 0.0 | 4.3 | 0.00 | 0.00 | 0.00 | 67 | 1015.8 |
| 20260902081528 | 61 | 324 | 1.7 | 7.8 | 0.00 | 0.00 | 0.00 | 60 | 1016.1 |
| 20260902080029 | 62 | 337 | 0.9 | 5.2 | 0.00 | 0.00 | 0.00 | 56 | 1015.6 |
| 20260902074512 | 62 | 360 | 0.0 | 5.2 | 0.00 | 0.00 | 0.00 | 58 | 1015.6 |
| 20260902073019 | 62 | 20 | 1.7 | 7.8 | 0.00 | 0.00 | 0.00 | 58 | 1015.6 |
| 20260902071533 | 62 | 174 | 0.9 | 8.7 | 0.00 | 0.00 | 0.00 | 55 | 1015.5 |